FW3312 Weather Reports


Display with metric or nautical units.
time (UTC)temp
F
wind
direction
speed
MPH
gust
MPH
rain 1hr
in
rain 24hr
in
rain mn
in
humidity
%
barometer
mb
20260505173011 79 306 0.0 3.0 0.00 0.00 0.00 55 1009.6
20260505172511 79 348 0.0 3.0 0.00 0.00 0.00 55 1009.7
20260505171515 79 311 0.0 5.0 0.00 0.00 0.00 55 1010.0
20260505171010 79 313 1.0 5.0 0.00 0.00 0.00 55 1010.0
20260505170508 79 19 0.0 5.0 0.00 0.00 0.00 55 1010.0
20260505170014 79 300 0.0 5.0 0.00 0.00 0.00 56 1010.1
20260505165507 78 284 0.0 6.0 0.00 0.00 0.00 56 1010.1
20260505165011 78 315 1.0 6.0 0.00 0.00 0.00 56 1010.1
20260505164506 78 330 1.0 5.0 0.00 0.00 0.00 56 1010.1
20260505164006 78 336 0.0 1.0 0.00 0.00 0.00 56 1010.2
20260505163507 78 336 0.0 3.0 0.00 0.00 0.00 56 1010.3
20260505163008 78 336 0.0 3.0 0.00 0.00 0.00 56 1010.4
20260505162506 78 333 1.0 4.0 0.00 0.00 0.00 56 1010.5
20260505161506 78 12 0.0 4.0 0.00 0.00 0.00 56 1010.5
20260505161006 78 345 0.0 4.0 0.00 0.00 0.00 56 1010.7
20260505160507 78 342 1.0 7.0 0.00 0.00 0.00 56 1010.8
20260505153003 78 37 2.0 8.0 0.00 0.00 0.00 55 1010.8
20260505152501 77 40 3.0 9.0 0.00 0.00 0.00 55 1010.9
20260505151503 76 49 2.0 8.0 0.00 0.00 0.00 56 1011.0
20260505151104 76 86 2.0 8.0 0.00 0.00 0.00 56 1011.1
20260505150559 76 35 2.0 8.0 0.00 0.00 0.00 56 1011.2
20260505140548 72 93 2.0 7.0 0.00 0.00 0.00 59 1011.9
20260505125034 68 81 3.0 8.0 0.00 0.00 0.00 67 1011.7
20260505124538 67 47 4.0 8.0 0.00 0.00 0.00 67 1011.7
20260505124032 67 36 3.0 10.0 0.00 0.00 0.00 67 1011.7
20260505123534 67 32 3.0 10.0 0.00 0.00 0.00 68 1011.7
20260505123029 67 347 4.0 9.0 0.00 0.00 0.00 68 1011.6
20260505122528 66 36 1.0 5.0 0.00 0.00 0.00 68 1011.4
20260505121528 66 50 2.0 9.0 0.00 0.00 0.00 68 1011.4
20260505121028 66 80 2.0 8.0 0.00 0.00 0.00 68 1011.3
20260505120530 66 54 4.0 8.0 0.00 0.00 0.00 69 1011.3
20260505120027 65 46 2.0 7.0 0.00 0.00 0.00 68 1011.2
20260505115527 65 355 2.0 5.0 0.00 0.00 0.00 68 1011.4
20260505115027 65 53 1.0 6.0 0.00 0.00 0.00 69 1011.4
20260505114527 65 56 2.0 6.0 0.00 0.00 0.00 69 1011.4
20260505114027 65 39 2.0 5.0 0.00 0.00 0.00 69 1011.4
20260505113527 65 48 2.0 5.0 0.00 0.00 0.00 69 1011.4
20260505113026 65 41 1.0 5.0 0.00 0.00 0.00 69 1011.4
20260505112525 65 85 1.0 4.0 0.00 0.00 0.00 69 1011.4
20260505111533 65 40 1.0 4.0 0.00 0.00 0.00 69 1011.2
20260505111024 65 46 2.0 4.0 0.00 0.00 0.00 69 1011.1
20260505110524 65 87 0.0 4.0 0.00 0.00 0.00 69 1011.0
20260505101523 65 34 3.0 6.0 0.00 0.00 0.00 68 1010.5
20260505101023 65 57 2.0 7.0 0.00 0.00 0.00 68 1010.4
20260505100526 65 54 2.0 7.0 0.00 0.00 0.00 68 1010.5
20260505100027 65 30 3.0 6.0 0.00 0.00 0.00 68 1010.5
20260505095522 65 60 2.0 6.0 0.00 0.00 0.00 68 1010.4
20260505095021 65 30 1.0 4.0 0.00 0.00 0.00 68 1010.3
20260505094522 65 76 2.0 5.0 0.00 0.00 0.00 69 1010.3
20260505094022 65 47 1.0 6.0 0.00 0.00 0.00 69 1010.3
20260505093523 65 26 2.0 6.0 0.00 0.00 0.00 69 1010.2
20260505093021 65 51 1.0 6.0 0.00 0.00 0.00 69 1010.1
20260505092525 65 49 1.0 6.0 0.00 0.00 0.00 69 1010.3
20260505091520 65 44 1.0 6.0 0.00 0.00 0.00 69 1010.1
20260505091026 65 45 3.0 7.0 0.00 0.00 0.00 69 1010.3
20260505090520 65 58 4.0 7.0 0.00 0.00 0.00 69 1010.2
20260505090021 65 42 2.0 7.0 0.00 0.00 0.00 69 1010.2
20260505085520 65 34 2.0 6.0 0.00 0.00 0.00 69 1010.2
20260505085019 65 21 2.0 7.0 0.00 0.00 0.00 69 1010.0
20260505084521 65 34 3.0 7.0 0.00 0.00 0.00 69 1010.0
20260505084018 65 43 2.0 5.0 0.00 0.00 0.00 69 1009.9
20260505083518 65 92 1.0 5.0 0.00 0.00 0.00 69 1009.9
20260505083018 65 78 2.0 6.0 0.00 0.00 0.00 68 1010.0
20260505082517 65 46 2.0 6.0 0.00 0.00 0.00 68 1010.1
20260505081526 65 47 2.0 5.0 0.00 0.00 0.00 68 1010.1
20260505081017 65 63 1.0 6.0 0.00 0.00 0.00 68 1010.0
20260505080521 65 36 2.0 6.0 0.00 0.00 0.00 68 1010.2
20260505080016 65 63 1.0 5.0 0.00 0.00 0.00 68 1010.2
20260505075515 65 43 1.0 7.0 0.00 0.00 0.00 68 1010.2
20260505075019 65 48 2.0 8.0 0.00 0.00 0.00 68 1010.2
20260505074516 65 34 3.0 8.0 0.00 0.00 0.00 68 1010.3
20260505074015 65 91 2.0 7.0 0.00 0.00 0.00 68 1010.2
20260505073515 65 40 2.0 7.0 0.00 0.00 0.00 67 1010.4
20260505073014 65 133 2.0 5.0 0.00 0.00 0.00 67 1010.4
20260505072513 65 89 2.0 7.0 0.00 0.00 0.00 67 1010.5
20260505071531 65 67 2.0 6.0 0.00 0.00 0.00 67 1010.5
20260505071014 65 109 3.0 6.0 0.00 0.00 0.00 66 1010.3
20260505070517 65 45 0.0 4.0 0.00 0.00 0.00 66 1010.3
20260505070014 65 87 2.0 4.0 0.00 0.00 0.00 66 1010.2
20260505065512 65 77 2.0 4.0 0.00 0.00 0.00 65 1010.5
20260505065011 65 52 1.0 5.0 0.00 0.00 0.00 65 1010.5
20260505064520 65 62 2.0 5.0 0.00 0.00 0.00 64 1010.5
20260505064011 65 49 2.0 5.0 0.00 0.00 0.00 64 1010.6
20260505063510 65 62 2.0 4.0 0.00 0.00 0.00 63 1010.7
20260505063013 65 40 2.0 4.0 0.00 0.00 0.00 63 1010.8
20260505062509 65 45 1.0 6.0 0.00 0.00 0.00 62 1010.9
20260505061510 65 41 0.0 6.0 0.00 0.00 0.00 61 1010.8
20260505061012 65 78 1.0 4.0 0.00 0.00 0.00 61 1010.8
20260505060509 65 33 1.0 5.0 0.00 0.00 0.00 60 1010.7
20260505060007 65 69 2.0 5.0 0.00 0.00 0.00 59 1010.8
20260505055506 66 85 1.0 3.0 0.00 0.00 0.00 59 1010.6
20260505055006 66 80 0.0 5.0 0.00 0.00 0.00 59 1010.7
20260505054506 66 70 2.0 5.0 0.00 0.00 0.00 58 1010.7
20260505054006 66 348 1.0 5.0 0.00 0.00 0.00 58 1010.7
20260505053505 66 54 1.0 6.0 0.00 0.00 0.00 58 1010.8
20260505053005 66 72 1.0 6.0 0.00 0.00 0.00 58 1010.8
20260505052506 66 42 1.0 6.0 0.00 0.00 0.00 57 1010.8
20260505051506 66 54 1.0 7.0 0.00 0.00 0.00 57 1010.8
20260505051006 66 43 3.0 7.0 0.00 0.00 0.00 57 1010.8
20260505050504 66 51 2.0 8.0 0.00 0.00 0.00 56 1010.8
20260505041600 67 355 1.0 7.0 0.00 0.00 0.00 55 1010.8
20260505041059 67 40 2.0 8.0 0.00 0.00 0.00 55 1010.8
20260505040602 67 31 3.0 8.0 0.00 0.00 0.00 55 1010.7
20260505040105 67 44 2.0 7.0 0.00 0.00 0.00 55 1010.8
20260505035558 67 25 2.0 9.0 0.00 0.00 0.00 55 1010.8
20260505035057 67 28 2.0 9.0 0.00 0.00 0.00 55 1010.8
20260505034557 67 21 3.0 8.0 0.00 0.00 0.00 55 1010.9
20260505034057 67 36 3.0 8.0 0.00 0.00 0.00 55 1011.0
20260505033557 67 28 3.0 8.0 0.00 0.00 0.00 54 1011.1
20260505033100 67 338 1.0 6.0 0.00 0.00 0.00 54 1011.2
20260505032557 67 30 1.0 5.0 0.00 0.00 0.00 54 1011.2
20260505031559 67 34 1.0 5.0 0.00 0.00 0.00 54 1011.1
20260505031056 67 356 1.0 3.0 0.00 0.00 0.00 54 1011.1
20260505030555 67 40 1.0 5.0 0.00 0.00 0.00 54 1010.9
20260505030056 67 27 1.0 5.0 0.00 0.00 0.00 54 1011.0
20260505025556 67 23 1.0 5.0 0.00 0.00 0.00 54 1010.9
20260505025054 67 20 1.0 6.0 0.00 0.00 0.00 54 1010.9
20260505024555 67 30 2.0 6.0 0.00 0.00 0.00 54 1010.8
20260505024054 66 52 2.0 7.0 0.00 0.00 0.00 54 1010.7
20260505023554 66 336 3.0 7.0 0.00 0.00 0.00 54 1010.6
20260505023107 66 337 2.0 6.0 0.00 0.00 0.00 54 1010.7
20260505022554 66 25 3.0 7.0 0.00 0.00 0.00 54 1010.7
20260505021559 66 27 2.0 9.0 0.00 0.00 0.00 54 1010.6
20260505021052 66 26 3.0 9.0 0.00 0.00 0.00 54 1010.3
20260505020552 66 96 3.0 8.0 0.00 0.00 0.00 54 1010.4
20260505020056 66 19 3.0 8.0 0.00 0.00 0.00 54 1010.3
20260505015552 66 49 4.0 9.0 0.00 0.00 0.00 54 1010.3
20260505015055 66 45 3.0 9.0 0.00 0.00 0.00 54 1010.3
20260505014552 65 31 4.0 9.0 0.00 0.00 0.00 54 1010.3
20260505014053 65 24 3.0 9.0 0.00 0.00 0.00 54 1010.3
20260505013551 65 63 4.0 9.0 0.00 0.00 0.00 54 1010.3
20260505013052 65 44 3.0 6.0 0.00 0.00 0.00 54 1010.2
20260505012552 65 347 2.0 6.0 0.00 0.00 0.00 54 1010.3
20260505011554 65 49 2.0 6.0 0.00 0.00 0.00 54 1010.0
20260505011055 65 55 2.0 6.0 0.00 0.00 0.00 55 1010.1
20260505010550 65 31 2.0 6.0 0.00 0.00 0.00 55 1010.2
20260505010053 66 20 3.0 5.0 0.00 0.00 0.00 55 1010.2
20260505005550 66 44 2.0 5.0 0.00 0.00 0.00 56 1010.3
20260505005050 66 62 2.0 6.0 0.00 0.00 0.00 56 1010.3
20260505004550 66 14 2.0 6.0 0.00 0.00 0.00 56 1010.3
20260505004049 66 32 1.0 6.0 0.00 0.00 0.00 56 1010.3
20260505003549 66 33 0.0 6.0 0.00 0.00 0.00 56 1010.3
20260505003049 66 43 3.0 6.0 0.00 0.00 0.00 56 1010.3
20260505002549 67 326 2.0 4.0 0.00 0.00 0.00 55 1010.2
20260505001550 67 19 3.0 5.0 0.00 0.00 0.00 55 1010.4
20260505001050 67 348 0.0 4.0 0.00 0.00 0.00 54 1010.3
20260505000549 67 358 0.0 4.0 0.00 0.00 0.00 54 1010.3
20260505000055 67 339 1.0 3.0 0.00 0.00 0.00 53 1010.3
20260504235551 67 352 0.0 3.0 0.00 0.00 0.00 52 1010.2
20260504235049 68 345 0.0 3.0 0.00 0.00 0.00 52 1010.2
20260504234549 68 359 0.0 3.0 0.00 0.00 0.00 52 1010.1
20260504234053 68 44 0.0 3.0 0.00 0.00 0.00 51 1010.0
20260504233548 68 11 1.0 4.0 0.00 0.00 0.00 51 1009.9
20260504233052 69 27 1.0 4.0 0.00 0.00 0.00 51 1009.7
20260504232548 69 37 0.0 4.0 0.00 0.00 0.00 51 1009.6
20260504231547 69 35 0.0 3.0 0.00 0.00 0.00 50 1009.4
20260504231046 70 65 0.0 3.0 0.00 0.00 0.00 50 1009.4
20260504230549 70 83 0.0 3.0 0.00 0.00 0.00 50 1009.3
20260504230047 70 67 1.0 3.0 0.00 0.00 0.00 50 1009.2
20260504225545 70 47 0.0 3.0 0.00 0.00 0.00 49 1009.2
20260504225050 70 55 0.0 3.0 0.00 0.00 0.00 49 1009.3
20260504224548 70 47 0.0 2.0 0.00 0.00 0.00 49 1009.2
20260504224047 71 60 0.0 2.0 0.00 0.00 0.00 48 1009.1
20260504223545 71 22 0.0 3.0 0.00 0.00 0.00 48 1009.1
20260504223045 71 42 1.0 3.0 0.00 0.00 0.00 48 1009.1
20260504222546 71 42 0.0 4.0 0.00 0.00 0.00 48 1009.1
20260504221546 71 47 1.0 3.0 0.00 0.00 0.00 47 1009.0
20260504221045 71 56 0.0 3.0 0.00 0.00 0.00 47 1008.9
20260504220545 71 23 1.0 3.0 0.00 0.00 0.00 47 1008.9
20260504220107 72 47 0.0 2.0 0.00 0.00 0.00 46 1008.9
20260504215545 72 46 0.0 4.0 0.00 0.00 0.00 46 1008.8
20260504215044 72 51 0.0 5.0 0.00 0.00 0.00 46 1008.6
20260504214552 72 41 1.0 5.0 0.00 0.00 0.00 46 1008.7
20260504214044 72 53 0.0 5.0 0.00 0.00 0.00 46 1008.6
20260504213544 72 45 2.0 5.0 0.00 0.00 0.00 45 1008.5
20260504213050 72 47 0.0 5.0 0.00 0.00 0.00 45 1008.6
20260504212543 73 40 1.0 6.0 0.00 0.00 0.00 45 1008.6
20260504211542 73 23 2.0 6.0 0.00 0.00 0.00 44 1008.7
20260504211042 73 45 3.0 5.0 0.00 0.00 0.00 43 1008.7
20260504210542 74 46 1.0 7.0 0.00 0.00 0.00 43 1008.7
20260504210042 74 20 0.0 5.0 0.00 0.00 0.00 43 1008.7
20260504205542 74 16 1.0 6.0 0.00 0.00 0.00 42 1008.8
20260504205041 74 344 2.0 6.0 0.00 0.00 0.00 42 1008.7
20260504204542 74 34 3.0 7.0 0.00 0.00 0.00 42 1008.8
20260504204040 75 42 4.0 9.0 0.00 0.00 0.00 41 1008.8
20260504203541 75 23 2.0 9.0 0.00 0.00 0.00 41 1008.8
20260504203041 75 82 4.0 9.0 0.00 0.00 0.00 41 1008.8
20260504202539 75 357 3.0 9.0 0.00 0.00 0.00 40 1008.8
20260504201539 75 46 5.0 9.0 0.00 0.00 0.00 40 1008.8
20260504201043 75 355 5.0 11.0 0.00 0.00 0.00 39 1008.9
20260504200540 76 23 3.0 11.0 0.00 0.00 0.00 39 1008.9
20260504200048 76 9 6.0 10.0 0.00 0.00 0.00 39 1008.9
20260504195538 76 348 1.0 11.0 0.00 0.00 0.00 39 1009.0
20260504195038 77 46 6.0 11.0 0.00 0.00 0.00 38 1008.9
20260504194541 77 34 3.0 10.0 0.00 0.00 0.00 38 1008.9
20260504194038 77 16 3.0 9.0 0.00 0.00 0.00 38 1008.9
20260504193537 77 350 4.0 10.0 0.00 0.00 0.00 38 1009.0
20260504193037 77 25 5.0 10.0 0.00 0.00 0.00 37 1009.0
20260504192536 77 312 5.0 10.0 0.00 0.00 0.00 37 1008.9
20260504191550 77 11 6.0 11.0 0.00 0.00 0.00 37 1009.0
20260504191038 77 350 3.0 9.0 0.00 0.00 0.00 37 1009.1
20260504190539 77 9 3.0 9.0 0.00 0.00 0.00 37 1009.1
20260504190043 77 59 2.0 9.0 0.00 0.00 0.00 37 1009.2
20260504185535 77 55 4.0 10.0 0.00 0.00 0.00 37 1009.2
20260504185035 77 348 4.0 10.0 0.00 0.00 0.00 37 1009.2
20260504184548 78 305 2.0 10.0 0.00 0.00 0.00 37 1009.2
20260504184035 78 51 4.0 11.0 0.00 0.00 0.00 35 1009.3
20260504183535 78 1 5.0 11.0 0.00 0.00 0.00 35 1009.3
20260504183041 78 352 1.0 7.0 0.00 0.00 0.00 35 1009.4
20260504182532 78 338 3.0 9.0 0.00 0.00 0.00 36 1009.4
20260504181535 78 37 3.0 7.0 0.00 0.00 0.00 34 1009.5
20260504181032 78 11 2.0 10.0 0.00 0.00 0.00 35 1009.4
20260504180532 78 354 5.0 10.0 0.00 0.00 0.00 35 1009.7
20260504180033 78 42 2.0 6.0 0.00 0.00 0.00 34 1009.7
20260504175530 78 19 1.0 9.0 0.00 0.00 0.00 35 1009.6
20260504175032 78 55 3.0 7.0 0.00 0.00 0.00 35 1009.7
20260504174530 77 353 1.0 5.0 0.00 0.00 0.00 35 1009.8
20260504174027 77 276 2.0 6.0 0.00 0.00 0.00 36 1009.8
20260504173526 77 326 2.0 6.0 0.00 0.00 0.00 35 1009.8